Location: Congrier
(47.8099°N, 1.1170°W)
Time: 12:21:39
(UTC+00:00)

ATLAS 2AS CENTAUR R/B - Pass Details

Date: 28 January 2023
Orbit: 986 x 1226 km, 63.7° (Epoch: 31 January)

Event Time Altitude Azimuth Distance (km) Brightness Sun altitude
Rises 21:00:39 0° 314° (NW) 3,940 6.4 -40.3°
Reaches altitude 10° 21:03:47 10° 303° (WNW) 2,938 5.6 -40.8°
Enters shadow 21:09:00 27° 254° (WSW) 1,895 4.3 -41.6°
